Location: Chilton Park
(37.7711°N, 100.0276°W)
Time: 22:13:21
(UTC+00:00)

Cosmos 2227 Rocket - Pass Details

Date: 08 July 2022
Orbit: 839 x 844 km, 71.0° (Epoch: 07 August)

Event Time Altitude Azimuth Distance (km) Brightness Sun altitude
Exits shadow 07:29:48 29° 99° (E) 1,497 3.4 -28.9°
Drops below altitude 10° 07:34:23 10° 45° (NE) 2,469 5.3 -28.7°
Sets 07:37:07 0° 34° (NE) 3,408 6.4 -28.5°
